Location: *
(46.4000°N, 12.6667°E)
Time: 14:27:04
(UTC+00:00)

ISS - Pass Details

Date: 12 March 2021
Orbit: 418 x 422 km, 51.6° (Epoch: 17 April)

Event Time Altitude Azimuth Distance (km) Brightness Sun altitude
Exits shadow 04:48:34 10° 253° (WSW) 1,529 -1.5 -7.6°
Reaches altitude 10° 04:48:46 10° 250° (WSW) 1,495 -1.6 -7.6°
Maximum altitude 04:50:03 12° 228° (SW) 1,389 -1.6 -7.4°
Drops below altitude 10° 04:51:20 10° 205° (SSW) 1,491 -1.2 -7.1°
Sets 04:54:31 0° 172° (S) 2,349 0.1 -6.6°
